Location: Ernez
(36.4595°N, 29.8755°E)
Time: 01:19:58
(UTC+00:00)

RESURS DK-1 - Pass Details

Date: 13 November 2025
Orbit: 524 x 535 km, 69.9° (Epoch: 06 December)

Event Time Altitude Azimuth Distance (km) Brightness Sun altitude
Rises 16:14:34 0° 351° (N) 2,693 5.8 -16.5°
Reaches altitude 10° 16:17:09 10° 7° (N) 1,797 4.8 -17.0°
Enters shadow 16:18:08 15° 18° (NNE) 1,520 4.3 -17.2°
